CW7079 Weather Reports


Display with metric or nautical units.
time (UTC)temp
F
wind
direction
speed
MPH
gust
MPH
rain 1hr
in
rain 24hr
in
rain mn
in
humidity
%
barometer
mb
20260505204846 52 15 7.0 12.0 0.00 0.00 0.00 78 1014.7
20260505201916 52 30 8.0 15.0 0.00 0.00 0.00 76 1014.7
20260505194833 53 33 8.0 14.0 0.00 0.00 0.00 75 1014.2
20260505191943 53 24 12.0 16.0 0.00 0.00 0.00 74 1013.8
20260505184906 55 29 10.0 17.0 0.00 0.00 0.00 72 1013.7
20260505171409 58 16 12.0 18.0 0.00 0.00 0.00 66 1013.2
20260505151101 63 11 3.0 9.0 0.00 0.00 0.00 59 1012.7
20260505123900 61 19 2.0 6.0 0.00 0.00 0.00 61 1013.2
20260505120941 61 19 1.0 6.0 0.00 0.00 0.00 62 1013.3
20260505100642 60 38 3.0 8.0 0.00 0.00 0.00 65 1013.9
20260505093709 59 16 3.0 9.0 0.00 0.00 0.00 66 1014.2
20260505083544 55 20 2.0 6.0 0.00 0.00 0.00 80 1014.6
20260505080517 54 20 1.0 6.0 0.00 0.00 0.00 82 1014.7
20260505073411 53 20 0.0 3.0 0.00 0.00 0.00 86 1014.7
20260505070516 50 19 0.0 2.0 0.00 0.00 0.00 88 1014.8
20260505063403 49 20 0.0 2.0 0.00 0.00 0.00 88 1015.1
20260505060510 49 20 1.0 3.0 0.00 0.00 0.00 89 1015.1
20260505053341 48 19 0.0 2.0 0.00 0.00 0.00 89 1015.0
20260505050314 49 20 0.0 1.0 0.00 0.00 0.00 89 1014.9
20260505033144 50 20 0.0 0.0 0.00 0.00 0.00 88 1015.1
20260505030212 50 20 0.0 0.0 0.00 0.00 0.00 88 1015.2
20260505023152 50 20 0.0 1.0 0.00 0.00 0.00 87 1015.1
20260505005839 50 19 0.0 0.0 0.00 0.00 0.00 87 1015.8
20260504235607 51 19 0.0 1.0 0.00 0.00 0.00 86 1016.2
20260504232505 51 20 1.0 3.0 0.00 0.00 0.00 86 1016.3
20260504225337 51 20 2.0 5.0 0.00 0.00 0.00 85 1016.3
20260504211914 53 19 2.0 5.0 0.00 0.00 0.00 83 1016.4